"Period start","avg(HW err(1)/warn(2) (#))","avg(Visibility (m))","avg(Weather code (#))","avg(Precip intensity (mm/h))","min(HW err(1)/warn(2) (#))","max(HW err(1)/warn(2) (#))","std(HW err(1)/warn(2) (#))","med(HW err(1)/warn(2) (#))","min(Visibility (m))","max(Visibility (m))","std(Visibility (m))","med(Visibility (m))","min(Weather code (#))","max(Weather code (#))","std(Weather code (#))","med(Weather code (#))","min(Precip intensity (mm/h))","max(Precip intensity (mm/h))","std(Precip intensity (mm/h))","med(Precip intensity (mm/h))"
2014-05-03 00:00:00,2,35689,0,0.00,2,2,0,2,24416,50000,8892,34178,0,0,0,0,0.00,0.00,0.00,0.00
2014-05-03 00:10:00,2,44743,0,0.00,2,2,0,2,35951,50000,4957,44467,0,0,0,0,0.00,0.00,0.00,0.00
2014-05-03 00:20:00,2,34074,0,0.00,2,2,0,2,23607,43913,6629,32600,0,0,0,0,0.00,0.00,0.00,0.00
2014-05-03 00:30:00,2,41753,0,0.00,2,2,0,2,32623,50000,5434,41446,0,0,0,0,0.00,0.00,0.00,0.00
2014-05-03 00:40:00,2,39870,0,0.00,2,2,0,2,24142,50000,7875,39442,0,0,0,0,0.00,0.00,0.00,0.00
2014-05-03 00:50:00,2,33063,0,0.00,2,2,0,2,21276,44648,6598,33428,0,0,0,0,0.00,0.00,0.00,0.00
2014-05-03 01:00:00,2,36906,0,0.00,2,2,0,2,25596,50000,8510,33044,0,0,0,0,0.00,0.00,0.00,0.00
2014-05-03 01:10:00,2,36377,0,0.00,2,2,0,2,28485,44493,6072,34928,0,0,0,0,0.00,0.00,0.00,0.00
2014-05-03 01:20:00,2,39045,0,0.00,2,2,0,2,32532,50000,5125,38273,0,0,0,0,0.00,0.00,0.00,0.00
2014-05-03 01:30:00,2,38428,0,0.00,2,2,0,2,22894,45688,6572,41161,0,0,0,0,0.00,0.00,0.00,0.00
2014-05-03 01:40:00,2,42155,0,0.00,2,2,0,2,28189,50000,5828,42312,0,0,0,0,0.00,0.00,0.00,0.00
2014-05-03 01:50:00,2,34934,0,0.00,2,2,0,2,23212,50000,9585,32912,0,0,0,0,0.00,0.00,0.00,0.00
2014-05-03 02:00:00,2,43661,0,0.00,2,2,0,2,26721,50000,7703,47810,0,0,0,0,0.00,0.00,0.00,0.00
2014-05-03 02:10:00,2,45651,0,0.00,2,2,0,2,36524,50000,4750,47388,0,0,0,0,0.00,0.00,0.00,0.00
2014-05-03 02:20:00,2,44852,0,0.00,2,2,0,2,33802,50000,5679,46600,0,0,0,0,0.00,0.00,0.00,0.00
2014-05-03 02:30:00,2,41500,0,0.00,2,2,0,2,27046,50000,8169,44776,0,0,0,0,0.00,0.00,0.00,0.00
2014-05-03 02:40:00,2,43657,0,0.00,2,2,0,2,30022,50000,5886,45104,0,0,0,0,0.00,0.00,0.00,0.00
2014-05-03 02:50:00,2,39313,0,0.00,2,2,0,2,29464,50000,7228,36078,0,0,0,0,0.00,0.00,0.00,0.00
2014-05-03 03:00:00,2,38342,0,0.00,2,2,0,2,27994,50000,6128,38988,0,0,0,0,0.00,0.00,0.00,0.00
2014-05-03 03:10:00,2,37049,0,0.00,2,2,0,2,25496,49737,7570,37062,0,0,0,0,0.00,0.00,0.00,0.00
2014-05-03 03:20:00,2,43470,0,0.00,2,2,0,2,33642,50000,6692,46179,0,0,0,0,0.00,0.00,0.00,0.00
2014-05-03 03:30:00,2,42917,0,0.00,2,2,0,2,35381,50000,5706,42082,0,0,0,0,0.00,0.00,0.00,0.00
2014-05-03 03:40:00,2,34535,0,0.00,2,2,0,2,23740,47089,7227,33311,0,0,0,0,0.00,0.00,0.00,0.00
2014-05-03 03:50:00,2,35657,0,0.00,2,2,0,2,20885,47185,8766,36426,0,0,0,0,0.00,0.00,0.00,0.00
2014-05-03 04:00:00,2,38964,0,0.00,2,2,0,2,31135,50000,5987,38912,0,0,0,0,0.00,0.00,0.00,0.00
2014-05-03 04:10:00,2,39840,0,0.00,2,2,0,2,24831,50000,7155,39424,0,0,0,0,0.00,0.00,0.00,0.00
2014-05-03 04:20:00,2,39245,0,0.00,2,2,0,2,30441,50000,5326,37866,0,0,0,0,0.00,0.00,0.00,0.00
2014-05-03 04:30:00,2,29384,0,0.00,2,2,0,2,20969,50000,7970,29166,0,0,0,0,0.00,0.00,0.00,0.00
2014-05-03 04:40:00,2,37076,0,0.00,2,2,0,2,27939,48013,5189,37710,0,0,0,0,0.00,0.00,0.00,0.00
2014-05-03 04:50:00,2,34215,0,0.00,2,2,0,2,26782,50000,6185,31952,0,0,0,0,0.00,0.00,0.00,0.00
2014-05-03 05:00:00,2,41435,0,0.00,2,2,0,2,26553,50000,8419,43352,0,0,0,0,0.00,0.00,0.00,0.00
2014-05-03 05:10:00,2,33115,0,0.00,2,2,0,2,20892,48887,9375,31824,0,0,0,0,0.00,0.00,0.00,0.00
2014-05-03 05:20:00,2,43007,0,0.00,2,2,0,2,35281,49223,3847,42462,0,0,0,0,0.00,0.00,0.00,0.00
2014-05-03 05:30:00,2,38581,0,0.00,2,2,0,2,31978,46942,4876,38654,0,0,0,0,0.00,0.00,0.00,0.00
2014-05-03 05:40:00,2,40723,0,0.00,2,2,0,2,27928,47532,6238,43050,0,0,0,0,0.00,0.00,0.00,0.00
2014-05-03 05:50:00,2,41080,0,0.00,2,2,0,2,29326,50000,5454,41146,0,0,0,0,0.00,0.00,0.00,0.00
2014-05-03 06:00:00,2,43004,0,0.00,2,2,0,2,28420,50000,7670,46150,0,0,0,0,0.00,0.00,0.00,0.00
2014-05-03 06:10:00,2,34488,0,0.00,2,2,0,2,24264,50000,7894,32234,0,0,0,0,0.00,0.00,0.00,0.00
2014-05-03 06:20:00,2,33078,0,0.00,2,2,0,2,19357,50000,11815,26610,0,0,0,0,0.00,0.00,0.00,0.00
2014-05-03 06:30:00,2,39798,0,0.00,2,2,0,2,24089,49520,8045,40930,0,0,0,0,0.00,0.00,0.00,0.00
2014-05-03 06:40:00,2,32187,0,0.00,2,2,0,2,18574,50000,8965,32196,0,0,0,0,0.00,0.00,0.00,0.00
2014-05-03 06:50:00,2,35982,0,0.00,2,2,0,2,26446,48842,7418,33731,0,0,0,0,0.00,0.00,0.00,0.00
2014-05-03 07:00:00,2,37931,0,0.00,2,2,0,2,25745,50000,7902,35870,0,0,0,0,0.00,0.00,0.00,0.00
2014-05-03 07:10:00,2,41416,0,0.00,2,2,0,2,33038,49942,6214,40106,0,0,0,0,0.00,0.00,0.00,0.00
2014-05-03 07:20:00,2,41096,0,0.00,2,2,0,2,34679,50000,4644,40912,0,0,0,0,0.00,0.00,0.00,0.00
2014-05-03 07:30:00,2,38992,0,0.00,2,2,0,2,27594,49656,7517,39972,0,0,0,0,0.00,0.00,0.00,0.00
2014-05-03 07:40:00,2,44127,0,0.00,2,2,0,2,37958,50000,4432,43478,0,0,0,0,0.00,0.00,0.00,0.00
2014-05-03 07:50:00,2,45822,0,0.00,2,2,0,2,30457,50000,5661,48081,0,0,0,0,0.00,0.00,0.00,0.00
2014-05-03 08:00:00,2,49418,0,0.00,2,2,0,2,45389,50000,1380,50000,0,0,0,0,0.00,0.00,0.00,0.00
2014-05-03 08:10:00,2,46539,0,0.00,2,2,0,2,38299,50000,4458,49087,0,0,0,0,0.00,0.00,0.00,0.00
2014-05-03 08:20:00,2,48655,0,0.00,2,2,0,2,44552,50000,1992,50000,0,0,0,0,0.00,0.00,0.00,0.00
2014-05-03 08:30:00,2,46877,0,0.00,2,2,0,2,39108,50000,3303,47165,0,0,0,0,0.00,0.00,0.00,0.00
2014-05-03 08:40:00,2,42981,0,0.00,2,2,0,2,35169,50000,5168,43236,0,0,0,0,0.00,0.00,0.00,0.00
2014-05-03 08:50:00,2,31827,0,0.00,2,2,0,2,17024,42888,8559,34390,0,0,0,0,0.00,0.00,0.00,0.00
2014-05-03 09:00:00,2,37226,0,0.00,2,2,0,2,20051,50000,9073,37644,0,0,0,0,0.00,0.00,0.00,0.00
2014-05-03 09:10:00,2,46049,0,0.00,2,2,0,2,34714,50000,5367,49986,0,0,0,0,0.00,0.00,0.00,0.00
2014-05-03 09:20:00,2,46413,0,0.00,2,2,0,2,31782,50000,6022,49904,0,0,0,0,0.00,0.00,0.00,0.00
2014-05-03 09:30:00,2,47184,0,0.00,2,2,0,2,31154,50000,5997,50000,0,0,0,0,0.00,0.00,0.00,0.00
2014-05-03 09:40:00,2,47606,0,0.00,2,2,0,2,43204,50000,2067,47776,0,0,0,0,0.00,0.00,0.00,0.00
2014-05-03 09:50:00,2,35746,38,0.10,2,2,0,2,25562,49979,7084,35520,0,54,20,41,0.00,0.30,0.10,0.08
2014-05-03 10:00:00,2,30424,54,0.18,2,2,0,2,19069,43159,7082,30512,54,54,0,54,0.05,0.45,0.15,0.10
2014-05-03 10:10:00,2,46544,43,0.05,2,2,0,2,37285,50000,4294,49000,0,54,22,54,0.00,0.15,0.05,0.05
2014-05-03 10:20:00,2,49284,0,0.00,2,2,0,2,47466,50000,1099,50000,0,0,0,0,0.00,0.00,0.00,0.00
2014-05-03 10:30:00,2,48974,0,0.00,2,2,0,2,43684,50000,1932,50000,0,0,0,0,0.00,0.00,0.00,0.00
2014-05-03 10:40:00,2,47909,0,0.00,2,2,0,2,44281,50000,2016,48098,0,0,0,0,0.00,0.00,0.00,0.00
2014-05-03 10:50:00,2,48645,0,0.00,2,2,0,2,43290,50000,2097,49666,0,0,0,0,0.00,0.00,0.00,0.00
2014-05-03 11:00:00,2,46918,0,0.00,2,2,0,2,37494,50000,3991,48974,0,0,0,0,0.00,0.00,0.00,0.00
2014-05-03 11:10:00,2,46740,0,0.00,2,2,0,2,41207,50000,3640,48612,0,0,0,0,0.00,0.00,0.00,0.00
2014-05-03 11:20:00,2,43846,19,0.02,2,2,0,2,36404,50000,5379,42704,0,54,23,0,0.00,0.10,0.03,0.00
2014-05-03 11:30:00,2,29552,0,0.00,2,2,0,2,22248,39591,5465,29480,0,0,0,0,0.00,0.00,0.00,0.00
2014-05-03 11:40:00,2,29204,0,0.00,2,2,0,2,24940,35092,2882,29740,0,0,0,0,0.00,0.00,0.00,0.00
2014-05-03 11:50:00,2,20486,0,0.00,2,2,0,2,16231,27952,3574,18942,0,0,0,0,0.00,0.00,0.00,0.00
2014-05-03 12:00:00,2,18604,0,0.00,2,2,0,2,11826,23458,4213,19733,0,0,0,0,0.00,0.00,0.00,0.00
2014-05-03 12:10:00,2,10794,4,0.00,2,2,0,2,8305,12435,1377,11241,0,40,12,0,0.00,0.00,0.00,0.00
2014-05-03 12:20:00,2,9721,53,0.40,2,2,0,2,7916,11383,1154,10021,40,54,4,54,0.10,0.95,0.33,0.28
2014-05-03 12:30:00,2,7888,51,1.39,2,2,0,2,5053,10817,1691,7500,41,54,5,54,0.15,3.50,1.09,1.02
2014-05-03 12:40:00,2,6231,54,1.01,2,2,0,2,4694,9107,1282,5749,54,54,0,54,0.30,1.45,0.34,1.05
2014-05-03 12:50:00,2,5556,46,1.51,2,2,0,2,3926,9141,1452,5183,41,54,6,41,0.60,2.20,0.42,1.55
2014-05-03 13:00:00,2,8395,41,1.25,2,2,0,2,7019,9114,715,8569,41,41,0,41,0.60,1.75,0.36,1.33
2014-05-03 13:10:00,2,9111,46,1.35,2,2,0,2,7137,11805,1537,9011,41,64,9,41,0.45,3.00,0.66,1.15
2014-05-03 13:20:00,2,9098,66,0.79,2,2,0,2,7950,10274,792,9083,41,74,13,71,0.30,1.45,0.42,0.65
2014-05-03 13:30:00,2,8930,47,1.10,2,2,0,2,7269,10333,1060,8880,41,71,12,41,0.10,1.80,0.62,1.25
2014-05-03 13:40:00,2,6900,59,1.24,2,2,0,2,6238,7645,534,6960,41,71,15,71,0.55,2.05,0.48,1.12
2014-05-03 13:50:00,2,6581,71,0.53,2,2,0,2,5558,7332,524,6643,71,71,0,71,0.30,0.90,0.20,0.45
2014-05-03 14:00:00,2,7321,63,0.45,2,2,0,2,5405,10053,1482,7260,41,77,15,71,0.25,0.65,0.15,0.42
2014-05-03 14:10:00,2,8560,48,0.41,2,2,0,2,7172,10458,1036,8370,41,54,6,48,0.20,0.60,0.14,0.42
2014-05-03 14:20:00,2,8486,54,0.52,2,2,0,2,7429,9881,826,8268,54,54,0,54,0.35,0.65,0.09,0.55
2014-05-03 14:30:00,2,7891,54,0.51,2,2,0,2,5996,9025,958,8083,54,54,0,54,0.10,1.25,0.36,0.42
2014-05-03 14:40:00,2,6105,46,2.09,2,2,0,2,5199,6965,535,6102,41,54,6,41,1.50,2.65,0.37,2.12
2014-05-03 14:50:00,2,5639,41,1.85,2,2,0,2,4602,6217,464,5660,41,41,0,41,1.20,2.45,0.34,1.75
2014-05-03 15:00:00,2,6338,41,1.79,2,2,0,2,5528,8158,808,5988,41,41,0,41,0.60,2.60,0.57,1.77
2014-05-03 15:10:00,2,7849,60,1.22,2,2,0,2,6192,8670,696,8076,41,64,7,64,0.70,2.90,0.62,1.02
2014-05-03 15:20:00,2,7400,51,1.36,2,2,0,2,5508,9794,1339,7516,41,64,9,54,0.40,2.50,0.72,1.40
2014-05-03 15:30:00,2,7451,59,1.08,2,2,0,2,6765,9300,717,7204,54,64,5,59,0.45,1.80,0.46,1.05
2014-05-03 15:40:00,2,7761,58,1.21,2,2,0,2,6617,8723,563,7646,54,64,5,54,0.75,1.95,0.33,1.18
2014-05-03 15:50:00,2,6748,54,1.62,2,2,0,2,5829,7656,536,6677,54,54,0,54,1.05,2.55,0.41,1.50
2014-05-03 16:00:00,2,6989,58,0.36,2,2,0,2,5840,7966,580,6984,54,64,5,54,0.15,0.75,0.16,0.33
2014-05-03 16:10:00,2,8958,58,0.31,2,2,0,2,7381,10232,916,9206,54,64,5,54,0.15,0.85,0.21,0.20
2014-05-03 16:20:00,2,11727,54,0.06,2,2,0,2,9232,15658,1847,11516,54,54,0,54,0.00,0.15,0.04,0.05
2014-05-03 16:30:00,2,16308,1,0.00,2,2,0,2,9819,20544,3039,15660,0,10,3,0,0.00,0.00,0.00,0.00
2014-05-03 16:40:00,2,11788,34,0.07,2,2,0,2,8689,13849,1331,11987,0,54,23,41,0.00,0.15,0.06,0.08
2014-05-03 16:50:00,2,22950,32,0.04,2,2,0,2,14046,41193,9478,18216,0,54,26,54,0.00,0.20,0.06,0.00
2014-05-03 17:00:00,2,7107,59,1.85,2,2,0,2,5468,10498,1807,6222,41,74,15,67,0.10,3.05,0.90,2.15
2014-05-03 17:10:00,2,8076,67,1.27,2,2,0,2,6634,9675,1010,7872,67,67,0,67,0.45,2.05,0.45,1.25
2014-05-03 17:20:00,2,26508,41,0.12,2,2,0,2,11495,45402,11792,22774,41,41,0,41,0.00,0.55,0.16,0.08
2014-05-03 17:30:00,2,38507,53,0.10,2,2,0,2,22524,50000,10343,43214,41,54,4,54,0.00,0.40,0.11,0.08
2014-05-03 17:40:00,2,37397,27,0.06,2,2,0,2,13849,50000,12937,43634,0,54,27,27,0.00,0.40,0.12,0.00
2014-05-03 17:50:00,2,36546,4,0.07,2,2,0,2,3674,50000,12972,41030,0,40,12,0,0.00,0.70,0.21,0.00
2014-05-03 18:00:00,2,7201,64,0.99,2,2,0,2,1451,19306,5586,4412,40,77,15,71,0.00,3.55,1.16,0.42
2014-05-03 18:10:00,2,44715,8,0.00,2,2,0,2,27701,50000,6972,47630,0,41,12,5,0.00,0.00,0.00,0.00
2014-05-03 18:20:00,2,41669,0,0.00,2,2,0,2,33549,50000,6424,40790,0,0,0,0,0.00,0.00,0.00,0.00
2014-05-03 18:30:00,2,44689,0,0.00,2,2,0,2,39680,48816,3319,45886,0,0,0,0,0.00,0.00,0.00,0.00
2014-05-03 18:40:00,2,47807,0,0.00,2,2,0,2,43961,50000,2314,48830,0,0,0,0,0.00,0.00,0.00,0.00
2014-05-03 18:50:00,2,45304,0,0.00,2,2,0,2,35953,50000,4443,45116,0,0,0,0,0.00,0.00,0.00,0.00
2014-05-03 19:00:00,2,45958,0,0.00,2,2,0,2,39676,50000,3819,46514,0,0,0,0,0.00,0.00,0.00,0.00
2014-05-03 19:10:00,2,45571,0,0.00,2,2,0,2,37884,49855,3473,45755,0,0,0,0,0.00,0.00,0.00,0.00
2014-05-03 19:20:00,2,44661,0,0.00,2,2,0,2,34627,49155,3996,45450,0,0,0,0,0.00,0.00,0.00,0.00
2014-05-03 19:30:00,2,45410,0,0.00,2,2,0,2,37286,50000,4192,46178,0,0,0,0,0.00,0.00,0.00,0.00
2014-05-03 19:40:00,2,44609,0,0.00,2,2,0,2,33978,50000,5353,45860,0,0,0,0,0.00,0.00,0.00,0.00
2014-05-03 19:50:00,2,44219,0,0.00,2,2,0,2,37951,50000,4367,45500,0,0,0,0,0.00,0.00,0.00,0.00
2014-05-03 20:00:00,2,47238,0,0.00,2,2,0,2,41110,50000,3412,49215,0,0,0,0,0.00,0.00,0.00,0.00
2014-05-03 20:10:00,2,45071,0,0.00,2,2,0,2,33665,50000,4741,47158,0,0,0,0,0.00,0.00,0.00,0.00
2014-05-03 20:20:00,2,32494,0,0.00,2,2,0,2,25478,42748,6044,30754,0,0,0,0,0.00,0.00,0.00,0.00
2014-05-03 20:30:00,2,35700,0,0.00,2,2,0,2,28583,45735,4566,34191,0,0,0,0,0.00,0.00,0.00,0.00
2014-05-03 20:40:00,2,35131,0,0.00,2,2,0,2,28233,44275,4591,34036,0,0,0,0,0.00,0.00,0.00,0.00
2014-05-03 20:50:00,2,35819,0,0.00,2,2,0,2,25579,45312,6271,35182,0,0,0,0,0.00,0.00,0.00,0.00
2014-05-03 21:00:00,2,36505,0,0.00,2,2,0,2,28235,49639,5977,36359,0,0,0,0,0.00,0.00,0.00,0.00
2014-05-03 21:10:00,2,36522,0,0.00,2,2,0,2,33088,42923,2835,36033,0,0,0,0,0.00,0.00,0.00,0.00
2014-05-03 21:20:00,2,33715,0,0.00,2,2,0,2,24032,44619,7627,33883,0,0,0,0,0.00,0.00,0.00,0.00
2014-05-03 21:30:00,2,39298,0,0.00,2,2,0,2,27364,46445,5282,38965,0,0,0,0,0.00,0.00,0.00,0.00
2014-05-03 21:40:00,2,32913,0,0.00,2,2,0,2,27016,40823,4200,31816,0,0,0,0,0.00,0.00,0.00,0.00
2014-05-03 21:50:00,2,34616,0,0.00,2,2,0,2,25935,41787,4740,33286,0,0,0,0,0.00,0.00,0.00,0.00
2014-05-03 22:00:00,2,40028,0,0.00,2,2,0,2,30759,50000,5508,39873,0,0,0,0,0.00,0.00,0.00,0.00
2014-05-03 22:10:00,2,39602,0,0.00,2,2,0,2,28284,50000,6225,40065,0,0,0,0,0.00,0.00,0.00,0.00
2014-05-03 22:20:00,2,34583,0,0.00,2,2,0,2,19783,47173,8613,34390,0,0,0,0,0.00,0.00,0.00,0.00
2014-05-03 22:30:00,2,32587,0,0.00,2,2,0,2,21770,42704,6080,34401,0,0,0,0,0.00,0.00,0.00,0.00
2014-05-03 22:40:00,2,24240,0,0.00,2,2,0,2,16615,28337,3749,25675,0,0,0,0,0.00,0.00,0.00,0.00
2014-05-03 22:50:00,2,23863,0,0.00,2,2,0,2,16296,38890,7031,20674,0,0,0,0,0.00,0.00,0.00,0.00
2014-05-03 23:00:00,2,16597,0,0.00,2,2,0,2,8697,24126,4360,16819,0,0,0,0,0.00,0.00,0.00,0.00
2014-05-03 23:10:00,2,8312,3,0.00,2,2,0,2,3728,14072,2683,8392,0,10,5,0,0.00,0.00,0.00,0.00
2014-05-03 23:20:00,2,15060,3,0.00,2,2,0,2,8107,28328,5811,13402,0,10,5,0,0.00,0.00,0.00,0.00
2014-05-03 23:30:00,2,18582,0,0.00,2,2,0,2,12953,29506,4596,17348,0,0,0,0,0.00,0.00,0.00,0.00
2014-05-03 23:40:00,2,27148,0,0.00,2,2,0,2,21543,33642,3406,26624,0,0,0,0,0.00,0.00,0.00,0.00
2014-05-03 23:50:00,2,22395,0,0.00,2,2,0,2,11666,34073,7451,21766,0,0,0,0,0.00,0.00,0.00,0.00
